Volver al catálogo

STARLINK-31151

ActivoComunicacionesVLEO
NORAD 58742·PAYLOAD·🇺🇸 United States

Lanzado Jan 7, 2024 desde Cape Canaveral Space Force Station

Loading…

Próximos Pases (próximas 24 horas)

TLE

ActualizadoSource: CelesTrak SupGP

Época: Sep 14, 2026, 20:46 UTC

1 58742C 24005Q   26257.86576389  .00032419  00000+0  11743-2 0  2574
2 58742  43.0019 231.2341 0001326 257.5004 244.3839 15.27559312    10

Sigue STARLINK-31151 en tiempo real con AllMySat

Download on the App Store